This is the latest recevied weather packets stored in our database for station/object SALT. If no packets are shown the sender has not sent any weather packets the latest 10 day(s).
| Time | Temp. | Humidity | Pressure | Rain* | Wind** | Luminosity | Snow |
|---|---|---|---|---|---|---|---|
| 1777828107 | 15° C | 37% | 1018.7 hPa | 0 mm | - | - | - |
| 1777827505 | 14.44° C | 36% | 1018.8 hPa | 0 mm | - | - | - |
| 1777826902 | 15° C | 36% | 1018.7 hPa | 0 mm | - | - | - |
| 1777826298 | 14.44° C | 35% | 1018.7 hPa | 0 mm | - | - | - |
| 1777825737 | 14.44° C | 36% | 1018.6 hPa | 0 mm | - | - | - |
| 1777825693 | 14.44° C | 36% | 1018.6 hPa | 0 mm | - | - | - |
| 1777825092 | 13.89° C | 37% | 1018.7 hPa | 0 mm | - | - | - |
| 1777824488 | 13.89° C | 37% | 1018.8 hPa | 0 mm | - | - | - |
| 1777823886 | 13.89° C | 38% | 1018.8 hPa | 0 mm | - | - | - |
| 1777823283 | 13.33° C | 41% | 1018.9 hPa | 0 mm | - | - | - |
| 1777822680 | 13.33° C | 44% | 1018.9 hPa | 0 mm | - | - | - |
| 1777822075 | 13.33° C | 43% | 1018.9 hPa | 0 mm | - | - | - |
| 1777821473 | 12.78° C | 42% | 1018.9 hPa | 0 mm | - | - | - |
| 1777820870 | 12.78° C | 45% | 1018.9 hPa | 0 mm | - | - | - |
| 1777820268 | 12.78° C | 47% | 1019 hPa | 0 mm | - | - | - |
| 1777819665 | 12.78° C | 44% | 1019.1 hPa | 0 mm | - | - | - |
| 1777819063 | 12.22° C | 45% | 1019 hPa | 0 mm | - | - | - |
| 1777818458 | 12.22° C | 46% | 1019 hPa | 0 mm | - | - | - |
| 1777817886 | 12.22° C | 46% | 1019.1 hPa | 0 mm | - | - | - |
| 1777817855 | 12.22° C | 46% | 1019.1 hPa | 0 mm | - | - | - |
| 1777817253 | 11.67° C | 47% | 1019.1 hPa | 0 mm | - | - | - |
| 1777816650 | 11.67° C | 46% | 1019.1 hPa | 0 mm | - | - | - |
| 1777816048 | 11.67° C | 45% | 1019.2 hPa | 0 mm | - | - | - |
| 1777815445 | 11.11° C | 46% | 1019.1 hPa | 0 mm | - | - | - |
| 1777814840 | 10.56° C | 48% | 1019.1 hPa | 0 mm | - | - | - |
* Rain latest 24 hours (hover to see other rain measurements)
** Current wind speed in m/s (hover to see current wind gust speed)